Regional Weather Roundup
Issued by NWS State College, PA

Home | Current Version | Previous Version | Text Only | Print | Product List | Glossary On
Versions: 1 2 3 4 5 6 7 8 9 10 11 12 13 14 15 16 17 18 19 20 21 22 23 24 25 26 27 28 29 30 31 32 33 34 35 36 37 38 39 40 41 42 43 44 45 46 47 48 49 50
000
ASUS41 KCTP 200910
RWRCTP

REGIONAL WEATHER ROUNDUP
NATIONAL WEATHER SERVICE STATE COLLEGE PA
400 AM EST SAT DEC 20 2014

Note: "fair" indicates few or no clouds below 12,000 feet with no
significant weather and/or obstructions to visibility.

* = STATION THAT DOES NOT REPORT PRECIPITATION /E.G. RAIN...SNOW...ETC/
    THUNDER OR FOG.

PAZ002>004-007>009-013>016-020>023-029>032-201000-
WESTERN PENNSYLVANIA

CITY           SKY/WX    TMP DP  RH WIND       PRES   REMARKS
ERIE           CLOUDY    29  19  66 NW3       30.27R
MEADVILLE      CLOUDY    27  20  75 W3        30.22S
FRANKLIN*      CLOUDY    27  18  69 W3        30.23F
NEW CASTLE       N/A     26  19  74 CALM      30.27F
BEAVER COUNTY  NOT AVBL
BUTLER*        CLOUDY    27  18  69 CALM      30.26S
PITTSBURGH INT CLOUDY    27  20  75 N6        30.23S
PITTSBURGH     CLOUDY    27  16  63 N3        30.22S
INDIANA*       CLOUDY    27  19  74 CALM      30.27S
LATROBE        CLOUDY    23  18  80 MISG      30.25S
WASHINGTON CO* NOT AVBL
$$

PAZ004>006-010>012-017>019-024>028-033>037-041-042-045-046-049>053-201000-
CENTRAL PENNSYLVANIA

CITY           SKY/WX    TMP DP  RH WIND       PRES   REMARKS
BRADFORD       CLOUDY    22  17  81 W6        30.16R WCI  14
DUBOIS         CLOUDY    22  19  89 W3        30.19S
CLEARFIELD     CLOUDY    24  18  77 W6        30.22R
JOHNSTOWN      CLOUDY    21  15  78 N6        30.16S WCI  13
ALTOONA        CLOUDY    24  18  77 NW6       30.21S
STATE COLLEGE  CLOUDY    26  18  73 CALM      30.23R
WILLIAMSPORT   CLOUDY    31  19  61 W6        30.23R
SELINSGROVE    CLOUDY    30  19  63 W3        30.25R
FT INDIANTOWN  CLOUDY    31  19  60 N7        30.24R
CAPITAL CITY   CLOUDY    32  20  61 NW6       30.25R
HARRISBURG     CLOUDY    31  20  63 NW12      30.24S
YORK           CLOUDY    29  21  72 W3        30.23S
$$

PAZ038>040-043-044-047-048-054-055-060>062-067>071-201000-
EASTERN PENNSYLVANIA

CITY           SKY/WX    TMP DP  RH WIND       PRES   REMARKS
SCRANTON       CLOUDY    29  20  69 N9        30.18R
MOUNT POCONO   CLOUDY    23  18  81 N6        30.11R
ALLENTOWN      CLOUDY    31  20  63 N8        30.22S
QUAKERTOWN*    CLOUDY    30  23  74 N3        30.22R
READING        CLOUDY    32  20  61 N8        30.22S
LANCASTER      CLOUDY    31  21  66 NW8       30.23R
COATESVILLE    CLOUDY    32  25  74 NW8       30.21R
POTTSTOWN      CLOUDY    31  21  66 N7        30.23S
BLUE BELL      MOCLDY    34  25  69 CALM      30.21S
DOYLESTOWN     CLOUDY    30  22  72 N7        30.21R
WILLOW GROVE   NOT AVBL
NORTH PHILA    CLOUDY    34  21  59 N8        30.24R
PHILADELPHIA   CLOUDY    34  22  61 N6        30.24R
$$


USA.gov is the U.S. government's official web portal to all federal, state and local government web resources and services.